Wetterdaten: Donnerstag, 12.02.2015
Datum Zeit Temperatur Luftfeuchte Luftdruck Regen Wind Richtung Richtung Sonnenschein ET UV Solar Taupunkt Windchill Windben
12.02.2015 00:00 -0,1 C 93 % 1024,7 hPa 0,0 l/m 4,5 km/h (1 Bft) O-SO 123 0 min 0,000 mm 0,0 UV-I 0 W/m -1,1 C -0,1 C 8,0 km/h (2 Bft)
12.02.2015 00:05 -0,1 C 93 % 1024,7 hPa 0,0 l/m 3,6 km/h (1 Bft) O 96 0 min 0,000 mm 0,0 UV-I 0 W/m -1,1 C -0,1 C 11,3 km/h (2 Bft)
12.02.2015 00:10 -0,1 C 93 % 1024,7 hPa 0,0 l/m 3,3 km/h (1 Bft) O-NO 57 0 min 0,000 mm 0,0 UV-I 0 W/m -1,1 C -0,1 C 9,7 km/h (2 Bft)
12.02.2015 00:15 -0,2 C 93 % 1024,7 hPa 0,0 l/m 4,4 km/h (1 Bft) O 90 0 min 0,000 mm 0,0 UV-I 0 W/m -1,2 C -0,2 C 12,9 km/h (3 Bft)
12.02.2015 00:20 -0,2 C 93 % 1024,7 hPa 0,0 l/m 2,4 km/h (1 Bft) O-NO 62 0 min 0,000 mm 0,0 UV-I 0 W/m -1,2 C -0,2 C 4,8 km/h (1 Bft)
12.02.2015 00:25 -0,1 C 94 % 1024,7 hPa 0,0 l/m 1,8 km/h (1 Bft) O-SO 102 0 min 0,000 mm 0,0 UV-I 0 W/m -0,9 C -0,1 C 11,3 km/h (2 Bft)
12.02.2015 00:30 -0,1 C 94 % 1024,7 hPa 0,0 l/m 3,7 km/h (1 Bft) O 101 0 min 0,000 mm 0,0 UV-I 0 W/m -0,9 C -0,1 C 11,3 km/h (2 Bft)
12.02.2015 00:35 -0,1 C 94 % 1024,7 hPa 0,0 l/m 4,2 km/h (1 Bft) O-SO 116 0 min 0,000 mm 0,0 UV-I 0 W/m -0,9 C -0,1 C 11,3 km/h (2 Bft)
12.02.2015 00:40 -0,1 C 94 % 1024,6 hPa 0,0 l/m 3,8 km/h (1 Bft) O-SO 115 0 min 0,000 mm 0,0 UV-I 0 W/m -0,9 C -0,1 C 9,7 km/h (2 Bft)
12.02.2015 00:45 -0,1 C 94 % 1024,6 hPa 0,0 l/m 5,4 km/h (1 Bft) O-SO 107 0 min 0,000 mm 0,0 UV-I 0 W/m -0,9 C -0,1 C 12,9 km/h (3 Bft)
12.02.2015 00:50 -0,1 C 94 % 1024,6 hPa 0,0 l/m 3,3 km/h (1 Bft) S-SO 150 0 min 0,000 mm 0,0 UV-I 0 W/m -0,9 C -0,1 C 8,0 km/h (2 Bft)
12.02.2015 00:55 -0,1 C 94 % 1024,5 hPa 0,0 l/m 2,9 km/h (1 Bft) SO 144 0 min 0,000 mm 0,0 UV-I 0 W/m -0,9 C -0,1 C 6,4 km/h (2 Bft)
12.02.2015 01:00 -0,1 C 94 % 1024,5 hPa 0,0 l/m 2,9 km/h (1 Bft) O-SO 115 0 min 0,000 mm 0,0 UV-I 0 W/m -0,9 C -0,1 C 11,3 km/h (2 Bft)
12.02.2015 01:05 -0,1 C 94 % 1024,6 hPa 0,0 l/m 0,6 km/h (0 Bft) SO 136 0 min 0,000 mm 0,0 UV-I 0 W/m -0,9 C -0,1 C 4,8 km/h (1 Bft)
12.02.2015 01:10 -0,1 C 94 % 1024,5 hPa 0,0 l/m 1,8 km/h (1 Bft) O 79 0 min 0,000 mm 0,0 UV-I 0 W/m -0,9 C -0,1 C 6,4 km/h (2 Bft)
12.02.2015 01:15 -0,1 C 94 % 1024,5 hPa 0,0 l/m 4,3 km/h (1 Bft) O 98 0 min 0,000 mm 0,0 UV-I 0 W/m -0,9 C -0,1 C 9,7 km/h (2 Bft)
12.02.2015 01:20 -0,1 C 94 % 1024,5 hPa 0,0 l/m 2,6 km/h (1 Bft) O 90 0 min 0,000 mm 0,0 UV-I 0 W/m -0,9 C -0,1 C 11,3 km/h (2 Bft)
12.02.2015 01:25 -0,1 C 94 % 1024,6 hPa 0,0 l/m 0,4 km/h (0 Bft) O 84 0 min 0,000 mm 0,0 UV-I 0 W/m -0,9 C -0,1 C 3,2 km/h (1 Bft)
12.02.2015 01:30 -0,1 C 94 % 1024,5 hPa 0,0 l/m 0,8 km/h (0 Bft) NO 47 0 min 0,000 mm 0,0 UV-I 0 W/m -0,9 C -0,1 C 3,2 km/h (1 Bft)
12.02.2015 01:35 -0,1 C 94 % 1024,5 hPa 0,0 l/m 1,3 km/h (1 Bft) O 81 0 min 0,000 mm 0,0 UV-I 0 W/m -0,9 C -0,1 C 4,8 km/h (1 Bft)
12.02.2015 01:40 -0,1 C 94 % 1024,5 hPa 0,0 l/m 2,5 km/h (1 Bft) O-NO 78 0 min 0,000 mm 0,0 UV-I 0 W/m -0,9 C -0,1 C 6,4 km/h (2 Bft)
12.02.2015 01:45 -0,1 C 94 % 1024,5 hPa 0,0 l/m 2,1 km/h (1 Bft) NO 38 0 min 0,000 mm 0,0 UV-I 0 W/m -0,9 C -0,1 C 9,7 km/h (2 Bft)
12.02.2015 01:50 -0,1 C 95 % 1024,5 hPa 0,0 l/m 1,3 km/h (1 Bft) O 98 0 min 0,000 mm 0,0 UV-I 0 W/m -0,8 C -0,1 C 4,8 km/h (1 Bft)
12.02.2015 01:55 -0,2 C 95 % 1024,4 hPa 0,0 l/m 4,9 km/h (1 Bft) O 88 0 min 0,000 mm 0,0 UV-I 0 W/m -0,9 C -0,2 C 11,3 km/h (2 Bft)
12.02.2015 02:00 -0,2 C 94 % 1024,5 hPa 0,0 l/m 3,0 km/h (1 Bft) SO 144 0 min 0,000 mm 0,0 UV-I 0 W/m -1,0 C -0,2 C 8,0 km/h (2 Bft)
12.02.2015 02:05 -0,1 C 95 % 1024,5 hPa 0,0 l/m 3,7 km/h (1 Bft) O 96 0 min 0,000 mm 0,0 UV-I 0 W/m -0,8 C -0,1 C 11,3 km/h (2 Bft)
12.02.2015 02:10 -0,1 C 95 % 1024,4 hPa 0,0 l/m 3,0 km/h (1 Bft) O-SO 119 0 min 0,000 mm 0,0 UV-I 0 W/m -0,8 C -0,1 C 8,0 km/h (2 Bft)
12.02.2015 02:15 -0,2 C 95 % 1024,5 hPa 0,0 l/m 2,5 km/h (1 Bft) O 94 0 min 0,000 mm 0,0 UV-I 0 W/m -0,9 C -0,2 C 4,8 km/h (1 Bft)
12.02.2015 02:20 -0,2 C 95 % 1024,4 hPa 0,0 l/m 1,4 km/h (1 Bft) O 93 0 min 0,000 mm 0,0 UV-I 0 W/m -0,9 C -0,2 C 4,8 km/h (1 Bft)
12.02.2015 02:25 -0,2 C 95 % 1024,3 hPa 0,0 l/m 1,9 km/h (1 Bft) O 91 0 min 0,000 mm 0,0 UV-I 0 W/m -0,9 C -0,2 C 8,0 km/h (2 Bft)
12.02.2015 02:30 -0,2 C 95 % 1024,3 hPa 0,0 l/m 1,3 km/h (1 Bft) O-NO 71 0 min 0,000 mm 0,0 UV-I 0 W/m -0,9 C -0,2 C 6,4 km/h (2 Bft)
12.02.2015 02:35 -0,1 C 95 % 1024,3 hPa 0,0 l/m 0,8 km/h (0 Bft) O-SO 111 0 min 0,000 mm 0,0 UV-I 0 W/m -0,8 C -0,1 C 4,8 km/h (1 Bft)
12.02.2015 02:40 -0,1 C 95 % 1024,3 hPa 0,0 l/m 1,3 km/h (1 Bft) O 80 0 min 0,000 mm 0,0 UV-I 0 W/m -0,8 C -0,1 C 3,2 km/h (1 Bft)
12.02.2015 02:45 -0,1 C 95 % 1024,3 hPa 0,0 l/m 1,0 km/h (0 Bft) O 94 0 min 0,000 mm 0,0 UV-I 0 W/m -0,8 C -0,1 C 4,8 km/h (1 Bft)
12.02.2015 02:50 -0,2 C 95 % 1024,2 hPa 0,0 l/m 1,6 km/h (1 Bft) O 90 0 min 0,000 mm 0,0 UV-I 0 W/m -0,9 C -0,2 C 4,8 km/h (1 Bft)
12.02.2015 02:55 -0,1 C 95 % 1024,2 hPa 0,0 l/m 2,0 km/h (1 Bft) SO 126 0 min 0,000 mm 0,0 UV-I 0 W/m -0,8 C -0,1 C 4,8 km/h (1 Bft)
12.02.2015 03:00 -0,1 C 95 % 1024,2 hPa 0,0 l/m 1,2 km/h (1 Bft) O 90 0 min 0,000 mm 0,0 UV-I 0 W/m -0,8 C -0,1 C 4,8 km/h (1 Bft)
12.02.2015 03:05 -0,1 C 95 % 1024,1 hPa 0,0 l/m 0,5 km/h (0 Bft) O 83 0 min 0,000 mm 0,0 UV-I 0 W/m -0,8 C -0,1 C 3,2 km/h (1 Bft)
12.02.2015 03:10 -0,1 C 95 % 1024,1 hPa 0,0 l/m 0,2 km/h (0 Bft) O-SO 123 0 min 0,000 mm 0,0 UV-I 0 W/m -0,8 C -0,1 C 1,6 km/h (1 Bft)
12.02.2015 03:15 -0,1 C 95 % 1024,1 hPa 0,0 l/m 0,9 km/h (0 Bft) SO 136 0 min 0,000 mm 0,0 UV-I 0 W/m -0,8 C -0,1 C 3,2 km/h (1 Bft)
12.02.2015 03:20 -0,1 C 95 % 1024,1 hPa 0,0 l/m 0,9 km/h (0 Bft) O-NO 63 0 min 0,000 mm 0,0 UV-I 0 W/m -0,8 C -0,1 C 8,0 km/h (2 Bft)
12.02.2015 03:25 -0,2 C 95 % 1024,0 hPa 0,0 l/m 3,0 km/h (1 Bft) O-SO 117 0 min 0,000 mm 0,0 UV-I 0 W/m -0,9 C -0,2 C 8,0 km/h (2 Bft)
12.02.2015 03:30 -0,2 C 95 % 1024,0 hPa 0,0 l/m 3,4 km/h (1 Bft) O-SO 109 0 min 0,000 mm 0,0 UV-I 0 W/m -0,9 C -0,2 C 11,3 km/h (2 Bft)
12.02.2015 03:35 -0,2 C 95 % 1024,0 hPa 0,0 l/m 1,1 km/h (1 Bft) NO 48 0 min 0,000 mm 0,0 UV-I 0 W/m -0,9 C -0,2 C 4,8 km/h (1 Bft)
12.02.2015 03:40 -0,2 C 95 % 1024,0 hPa 0,0 l/m 1,3 km/h (1 Bft) O-SO 123 0 min 0,000 mm 0,0 UV-I 0 W/m -0,9 C -0,2 C 4,8 km/h (1 Bft)
12.02.2015 03:45 -0,2 C 95 % 1023,9 hPa 0,0 l/m 0,5 km/h (0 Bft) O-SO 119 0 min 0,000 mm 0,0 UV-I 0 W/m -0,9 C -0,2 C 3,2 km/h (1 Bft)
12.02.2015 03:50 -0,2 C 95 % 1023,9 hPa 0,0 l/m 0,2 km/h (0 Bft) O 80 0 min 0,000 mm 0,0 UV-I 0 W/m -0,9 C -0,2 C 3,2 km/h (1 Bft)
12.02.2015 03:55 -0,1 C 95 % 1023,9 hPa 0,0 l/m 0,2 km/h (0 Bft) O-NO 65 0 min 0,000 mm 0,0 UV-I 0 W/m -0,8 C -0,1 C 3,2 km/h (1 Bft)
12.02.2015 04:00 -0,2 C 95 % 1023,9 hPa 0,0 l/m 2,0 km/h (1 Bft) O-NO 62 0 min 0,000 mm 0,0 UV-I 0 W/m -0,9 C -0,2 C 8,0 km/h (2 Bft)
12.02.2015 04:05 -0,1 C 95 % 1023,9 hPa 0,0 l/m 1,6 km/h (1 Bft) O-NO 69 0 min 0,000 mm 0,0 UV-I 0 W/m -0,8 C -0,1 C 4,8 km/h (1 Bft)
12.02.2015 04:10 -0,1 C 95 % 1023,9 hPa 0,0 l/m 1,5 km/h (1 Bft) O-NO 77 0 min 0,000 mm 0,0 UV-I 0 W/m -0,8 C -0,1 C 8,0 km/h (2 Bft)
12.02.2015 04:15 -0,1 C 95 % 1023,8 hPa 0,0 l/m 2,0 km/h (1 Bft) O-SO 110 0 min 0,000 mm 0,0 UV-I 0 W/m -0,8 C -0,1 C 4,8 km/h (1 Bft)
12.02.2015 04:20 -0,1 C 95 % 1023,8 hPa 0,0 l/m 1,3 km/h (1 Bft) O 98 0 min 0,000 mm 0,0 UV-I 0 W/m -0,8 C -0,1 C 8,0 km/h (2 Bft)
12.02.2015 04:25 -0,1 C 95 % 1023,8 hPa 0,0 l/m 2,2 km/h (1 Bft) O 84 0 min 0,000 mm 0,0 UV-I 0 W/m -0,8 C -0,1 C 8,0 km/h (2 Bft)
12.02.2015 04:30 -0,1 C 95 % 1023,7 hPa 0,0 l/m 1,4 km/h (1 Bft) O 95 0 min 0,000 mm 0,0 UV-I 0 W/m -0,8 C -0,1 C 4,8 km/h (1 Bft)
12.02.2015 04:35 -0,1 C 96 % 1023,7 hPa 0,0 l/m 2,4 km/h (1 Bft) O-SO 104 0 min 0,000 mm 0,0 UV-I 0 W/m -0,7 C -0,1 C 8,0 km/h (2 Bft)
12.02.2015 04:40 -0,1 C 95 % 1023,7 hPa 0,0 l/m 2,0 km/h (1 Bft) O-SO 109 0 min 0,000 mm 0,0 UV-I 0 W/m -0,8 C -0,1 C 4,8 km/h (1 Bft)
12.02.2015 04:45 -0,1 C 95 % 1023,7 hPa 0,0 l/m 2,1 km/h (1 Bft) SO 134 0 min 0,000 mm 0,0 UV-I 0 W/m -0,8 C -0,1 C 8,0 km/h (2 Bft)
12.02.2015 04:50 -0,1 C 95 % 1023,6 hPa 0,0 l/m 0,9 km/h (0 Bft) O-SO 118 0 min 0,000 mm 0,0 UV-I 0 W/m -0,8 C -0,1 C 3,2 km/h (1 Bft)
12.02.2015 04:55 -0,1 C 95 % 1023,6 hPa 0,0 l/m 3,2 km/h (1 Bft) O 94 0 min 0,000 mm 0,0 UV-I 0 W/m -0,8 C -0,1 C 9,7 km/h (2 Bft)
12.02.2015 05:00 -0,2 C 95 % 1023,7 hPa 0,0 l/m 4,4 km/h (1 Bft) O-NO 61 0 min 0,000 mm 0,0 UV-I 0 W/m -0,9 C -0,2 C 11,3 km/h (2 Bft)
12.02.2015 05:05 -0,2 C 95 % 1023,7 hPa 0,0 l/m 2,6 km/h (1 Bft) O-SO 113 0 min 0,000 mm 0,0 UV-I 0 W/m -0,9 C -0,2 C 6,4 km/h (2 Bft)
12.02.2015 05:10 -0,1 C 95 % 1023,7 hPa 0,0 l/m 2,4 km/h (1 Bft) SO 136 0 min 0,000 mm 0,0 UV-I 0 W/m -0,8 C -0,1 C 11,3 km/h (2 Bft)
12.02.2015 05:15 -0,2 C 95 % 1023,7 hPa 0,0 l/m 2,8 km/h (1 Bft) O-SO 115 0 min 0,000 mm 0,0 UV-I 0 W/m -0,9 C -0,2 C 12,9 km/h (3 Bft)
12.02.2015 05:20 -0,2 C 95 % 1023,7 hPa 0,0 l/m 0,7 km/h (0 Bft) O 90 0 min 0,000 mm 0,0 UV-I 0 W/m -0,9 C -0,2 C 3,2 km/h (1 Bft)
12.02.2015 05:25 -0,2 C 95 % 1023,7 hPa 0,0 l/m 3,3 km/h (1 Bft) O-SO 107 0 min 0,000 mm 0,0 UV-I 0 W/m -0,9 C -0,2 C 8,0 km/h (2 Bft)
12.02.2015 05:30 -0,2 C 95 % 1023,6 hPa 0,0 l/m 2,0 km/h (1 Bft) S-SO 161 0 min 0,000 mm 0,0 UV-I 0 W/m -0,9 C -0,2 C 9,7 km/h (2 Bft)
12.02.2015 05:35 -0,2 C 96 % 1023,5 hPa 0,0 l/m 2,6 km/h (1 Bft) SO 127 0 min 0,000 mm 0,0 UV-I 0 W/m -0,8 C -0,2 C 8,0 km/h (2 Bft)
12.02.2015 05:40 -0,2 C 96 % 1023,5 hPa 0,0 l/m 4,2 km/h (1 Bft) O-SO 111 0 min 0,000 mm 0,0 UV-I 0 W/m -0,8 C -0,2 C 9,7 km/h (2 Bft)
12.02.2015 05:45 -0,2 C 96 % 1023,5 hPa 0,0 l/m 1,1 km/h (1 Bft) S-SW 200 0 min 0,000 mm 0,0 UV-I 0 W/m -0,8 C -0,2 C 4,8 km/h (1 Bft)
12.02.2015 05:50 -0,2 C 96 % 1023,4 hPa 0,0 l/m 0,3 km/h (0 Bft) S-SW 194 0 min 0,000 mm 0,0 UV-I 0 W/m -0,8 C -0,2 C 4,8 km/h (1 Bft)
12.02.2015 05:55 -0,2 C 96 % 1023,4 hPa 0,0 l/m 0,0 km/h (0 Bft) S-SW 194 0 min 0,000 mm 0,0 UV-I 0 W/m -0,8 C -0,2 C 0,0 km/h (0 Bft)
12.02.2015 06:00 -0,2 C 96 % 1023,3 hPa 0,0 l/m 1,4 km/h (1 Bft) O 92 0 min 0,000 mm 0,0 UV-I 0 W/m -0,8 C -0,2 C 8,0 km/h (2 Bft)
12.02.2015 06:05 -0,2 C 96 % 1023,4 hPa 0,0 l/m 1,6 km/h (1 Bft) S 173 0 min 0,000 mm 0,0 UV-I 0 W/m -0,8 C -0,2 C 8,0 km/h (2 Bft)
12.02.2015 06:10 -0,2 C 96 % 1023,5 hPa 0,0 l/m 0,3 km/h (0 Bft) SO 142 0 min 0,000 mm 0,0 UV-I 0 W/m -0,8 C -0,2 C 3,2 km/h (1 Bft)
12.02.2015 06:15 -0,2 C 96 % 1023,4 hPa 0,0 l/m 3,6 km/h (1 Bft) O-SO 106 0 min 0,000 mm 0,0 UV-I 0 W/m -0,8 C -0,2 C 8,0 km/h (2 Bft)
12.02.2015 06:20 -0,3 C 96 % 1023,4 hPa 0,0 l/m 4,7 km/h (1 Bft) S-SO 153 0 min 0,000 mm 0,0 UV-I 0 W/m -0,9 C -0,3 C 11,3 km/h (2 Bft)
12.02.2015 06:25 -0,3 C 96 % 1023,4 hPa 0,0 l/m 2,8 km/h (1 Bft) SO 130 0 min 0,000 mm 0,0 UV-I 0 W/m -0,9 C -0,3 C 6,4 km/h (2 Bft)
12.02.2015 06:30 -0,3 C 96 % 1023,4 hPa 0,0 l/m 2,8 km/h (1 Bft) S-SO 159 0 min 0,000 mm 0,0 UV-I 0 W/m -0,9 C -0,3 C 6,4 km/h (2 Bft)
12.02.2015 06:35 -0,3 C 96 % 1023,4 hPa 0,0 l/m 2,7 km/h (1 Bft) S-SO 154 0 min 0,000 mm 0,0 UV-I 0 W/m -0,9 C -0,3 C 9,7 km/h (2 Bft)
12.02.2015 06:40 -0,3 C 96 % 1023,5 hPa 0,0 l/m 2,6 km/h (1 Bft) S 173 0 min 0,000 mm 0,0 UV-I 0 W/m -0,9 C -0,3 C 6,4 km/h (2 Bft)
12.02.2015 06:45 -0,3 C 96 % 1023,4 hPa 0,0 l/m 1,2 km/h (1 Bft) S 186 0 min 0,000 mm 0,0 UV-I 0 W/m -0,9 C -0,3 C 4,8 km/h (1 Bft)
12.02.2015 06:50 -0,3 C 96 % 1023,4 hPa 0,0 l/m 0,4 km/h (0 Bft) S-SW 202 0 min 0,000 mm 0,0 UV-I 0 W/m -0,9 C -0,3 C 3,2 km/h (1 Bft)
12.02.2015 06:55 -0,3 C 96 % 1023,5 hPa 0,0 l/m 0,9 km/h (0 Bft) S-SW 208 0 min 0,000 mm 0,0 UV-I 0 W/m -0,9 C -0,3 C 6,4 km/h (2 Bft)
12.02.2015 07:00 -0,3 C 96 % 1023,5 hPa 0,0 l/m 0,6 km/h (0 Bft) S-SW 211 0 min 0,000 mm 0,0 UV-I 0 W/m -0,9 C -0,3 C 4,8 km/h (1 Bft)
12.02.2015 07:05 -0,3 C 96 % 1023,5 hPa 0,0 l/m 1,4 km/h (1 Bft) S 188 0 min 0,000 mm 0,0 UV-I 0 W/m -0,9 C -0,3 C 6,4 km/h (2 Bft)
12.02.2015 07:10 -0,2 C 96 % 1023,5 hPa 0,0 l/m 1,3 km/h (1 Bft) S 180 0 min 0,000 mm 0,0 UV-I 0 W/m -0,8 C -0,2 C 6,4 km/h (2 Bft)
12.02.2015 07:15 -0,2 C 96 % 1023,5 hPa 0,0 l/m 0,5 km/h (0 Bft) S 182 0 min 0,000 mm 0,0 UV-I 0 W/m -0,8 C -0,2 C 3,2 km/h (1 Bft)
12.02.2015 07:20 -0,3 C 96 % 1023,6 hPa 0,0 l/m 1,1 km/h (1 Bft) SO 134 0 min 0,000 mm 0,0 UV-I 0 W/m -0,9 C -0,3 C 4,8 km/h (1 Bft)
12.02.2015 07:25 -0,3 C 96 % 1023,6 hPa 0,0 l/m 1,6 km/h (1 Bft) O-SO 117 0 min 0,000 mm 0,0 UV-I 0 W/m -0,9 C -0,3 C 6,4 km/h (2 Bft)
12.02.2015 07:30 -0,3 C 96 % 1023,7 hPa 0,0 l/m 2,4 km/h (1 Bft) O-SO 111 0 min 0,000 mm 0,0 UV-I 0 W/m -0,9 C -0,3 C 9,7 km/h (2 Bft)
12.02.2015 07:35 -0,4 C 96 % 1023,8 hPa 0,0 l/m 0,2 km/h (0 Bft) S-SO 163 0 min 0,000 mm 0,0 UV-I 0 W/m -1,0 C -0,4 C 3,2 km/h (1 Bft)
12.02.2015 07:40 -0,4 C 96 % 1023,8 hPa 0,0 l/m 1,2 km/h (1 Bft) O-SO 111 0 min 0,000 mm 0,0 UV-I 0 W/m -1,0 C -0,4 C 4,8 km/h (1 Bft)
12.02.2015 07:45 -0,4 C 96 % 1023,9 hPa 0,0 l/m 2,2 km/h (1 Bft) O-SO 109 0 min 0,000 mm 0,0 UV-I 0 W/m -1,0 C -0,4 C 8,0 km/h (2 Bft)
12.02.2015 07:50 -0,4 C 95 % 1023,9 hPa 0,0 l/m 1,4 km/h (1 Bft) S-SW 194 0 min 0,000 mm 0,0 UV-I 0 W/m -1,1 C -0,4 C 8,0 km/h (2 Bft)
12.02.2015 07:55 -0,4 C 95 % 1023,9 hPa 0,0 l/m 1,0 km/h (0 Bft) S 188 0 min 0,000 mm 0,0 UV-I 0 W/m -1,1 C -0,4 C 4,8 km/h (1 Bft)
12.02.2015 08:00 -0,4 C 96 % 1023,9 hPa 0,0 l/m 1,2 km/h (1 Bft) S 188 0 min 0,000 mm 0,0 UV-I 0 W/m -1,0 C -0,4 C 8,0 km/h (2 Bft)
12.02.2015 08:05 -0,4 C 96 % 1023,9 hPa 0,0 l/m 3,6 km/h (1 Bft) S-SO 163 0 min 0,000 mm 0,0 UV-I 0 W/m -1,0 C -0,4 C 8,0 km/h (2 Bft)
12.02.2015 08:10 -0,5 C 96 % 1023,9 hPa 0,0 l/m 1,0 km/h (0 Bft) S-SO 147 0 min 0,000 mm 0,0 UV-I 4 W/m -1,1 C -0,5 C 3,2 km/h (1 Bft)
12.02.2015 08:15 -0,5 C 96 % 1023,9 hPa 0,0 l/m 2,7 km/h (1 Bft) O 88 0 min 0,000 mm 0,0 UV-I 6 W/m -1,1 C -0,5 C 8,0 km/h (2 Bft)
12.02.2015 08:20 -0,5 C 96 % 1023,9 hPa 0,0 l/m 0,6 km/h (0 Bft) O 94 0 min 0,000 mm 0,0 UV-I 7 W/m -1,1 C -0,5 C 4,8 km/h (1 Bft)
12.02.2015 08:25 -0,5 C 96 % 1024,0 hPa 0,0 l/m 2,3 km/h (1 Bft) O 90 0 min 0,000 mm 0,0 UV-I 9 W/m -1,1 C -0,5 C 8,0 km/h (2 Bft)
12.02.2015 08:30 -0,5 C 96 % 1024,0 hPa 0,0 l/m 2,8 km/h (1 Bft) O 99 0 min 0,000 mm 0,0 UV-I 9 W/m -1,1 C -0,5 C 9,7 km/h (2 Bft)
12.02.2015 08:35 -0,5 C 96 % 1024,0 hPa 0,0 l/m 3,3 km/h (1 Bft) O 98 0 min 0,000 mm 0,0 UV-I 11 W/m -1,1 C -0,5 C 12,9 km/h (3 Bft)
12.02.2015 08:40 -0,5 C 96 % 1024,0 hPa 0,0 l/m 4,2 km/h (1 Bft) O 95 0 min 0,000 mm 0,0 UV-I 12 W/m -1,1 C -0,5 C 9,7 km/h (2 Bft)
12.02.2015 08:45 -0,6 C 96 % 1024,1 hPa 0,0 l/m 2,3 km/h (1 Bft) SO 125 0 min 0,000 mm 0,0 UV-I 12 W/m -1,2 C -0,6 C 4,8 km/h (1 Bft)
12.02.2015 08:50 -0,5 C 96 % 1024,1 hPa 0,0 l/m 0,7 km/h (0 Bft) O-SO 112 0 min 0,000 mm 0,0 UV-I 14 W/m -1,1 C -0,5 C 6,4 km/h (2 Bft)
12.02.2015 08:55 -0,4 C 96 % 1024,1 hPa 0,0 l/m 1,1 km/h (1 Bft) O-NO 63 0 min 0,000 mm 0,0 UV-I 16 W/m -1,0 C -0,4 C 4,8 km/h (1 Bft)
12.02.2015 09:00 -0,4 C 96 % 1024,1 hPa 0,0 l/m 0,5 km/h (0 Bft) O-NO 67 0 min 0,000 mm 0,0 UV-I 17 W/m -1,0 C -0,4 C 3,2 km/h (1 Bft)
12.02.2015 09:05 -0,4 C 96 % 1024,1 hPa 0,0 l/m 1,5 km/h (1 Bft) O-NO 63 0 min 0,000 mm 0,0 UV-I 18 W/m -1,0 C -0,4 C 9,7 km/h (2 Bft)
12.02.2015 09:10 -0,4 C 96 % 1024,0 hPa 0,0 l/m 3,9 km/h (1 Bft) O-SO 111 0 min 0,000 mm 0,0 UV-I 19 W/m -1,0 C -0,4 C 9,7 km/h (2 Bft)
12.02.2015 09:15 -0,4 C 96 % 1024,1 hPa 0,0 l/m 2,1 km/h (1 Bft) O 83 0 min 0,000 mm 0,0 UV-I 21 W/m -1,0 C -0,4 C 8,0 km/h (2 Bft)
12.02.2015 09:20 -0,4 C 96 % 1024,2 hPa 0,0 l/m 3,2 km/h (1 Bft) O 82 0 min 0,000 mm 0,0 UV-I 24 W/m -1,0 C -0,4 C 8,0 km/h (2 Bft)
12.02.2015 09:25 -0,4 C 96 % 1024,2 hPa 0,0 l/m 1,0 km/h (0 Bft) O-SO 123 0 min 0,000 mm 0,0 UV-I 26 W/m -1,0 C -0,4 C 6,4 km/h (2 Bft)
12.02.2015 09:30 -0,4 C 96 % 1024,3 hPa 0,0 l/m 2,8 km/h (1 Bft) SO 131 0 min 0,000 mm 0,0 UV-I 28 W/m -1,0 C -0,4 C 9,7 km/h (2 Bft)
12.02.2015 09:35 -0,4 C 96 % 1024,3 hPa 0,0 l/m 3,0 km/h (1 Bft) S-SO 148 0 min 0,000 mm 0,0 UV-I 32 W/m -1,0 C -0,4 C 11,3 km/h (2 Bft)
12.02.2015 09:40 -0,5 C 96 % 1024,3 hPa 0,0 l/m 4,2 km/h (1 Bft) O-SO 118 0 min 0,000 mm 0,0 UV-I 32 W/m -1,1 C -0,5 C 9,7 km/h (2 Bft)
12.02.2015 09:45 -0,5 C 96 % 1024,3 hPa 0,0 l/m 1,9 km/h (1 Bft) SO 143 0 min 0,000 mm 0,0 UV-I 32 W/m -1,1 C -0,5 C 6,4 km/h (2 Bft)
12.02.2015 09:50 -0,4 C 96 % 1024,4 hPa 0,0 l/m 3,2 km/h (1 Bft) O 93 0 min 0,000 mm 0,0 UV-I 34 W/m -1,0 C -0,4 C 8,0 km/h (2 Bft)
12.02.2015 09:55 -0,5 C 96 % 1024,4 hPa 0,0 l/m 1,6 km/h (1 Bft) S 184 0 min 0,000 mm 0,0 UV-I 38 W/m -1,1 C -0,5 C 4,8 km/h (1 Bft)
12.02.2015 10:00 -0,5 C 96 % 1024,4 hPa 0,0 l/m 2,9 km/h (1 Bft) SO 138 0 min 0,000 mm 0,0 UV-I 37 W/m -1,1 C -0,5 C 9,7 km/h (2 Bft)
12.02.2015 10:05 -0,4 C 96 % 1024,4 hPa 0,0 l/m 2,3 km/h (1 Bft) O 94 0 min 0,000 mm 0,0 UV-I 39 W/m -1,0 C -0,4 C 8,0 km/h (2 Bft)
12.02.2015 10:10 -0,5 C 96 % 1024,4 hPa 0,0 l/m 2,9 km/h (1 Bft) O 95 0 min 0,000 mm 0,0 UV-I 39 W/m -1,1 C -0,5 C 8,0 km/h (2 Bft)
12.02.2015 10:15 -0,5 C 96 % 1024,4 hPa 0,0 l/m 2,5 km/h (1 Bft) SO 139 0 min 0,000 mm 0,0 UV-I 41 W/m -1,1 C -0,5 C 8,0 km/h (2 Bft)
12.02.2015 10:20 -0,4 C 96 % 1024,4 hPa 0,0 l/m 0,5 km/h (0 Bft) O-SO 112 0 min 0,000 mm 0,0 UV-I 42 W/m -1,0 C -0,4 C 4,8 km/h (1 Bft)
12.02.2015 10:25 -0,4 C 96 % 1024,4 hPa 0,0 l/m 0,1 km/h (0 Bft) O-SO 102 0 min 0,000 mm 0,0 UV-I 45 W/m -1,0 C -0,4 C 3,2 km/h (1 Bft)
12.02.2015 10:30 -0,3 C 96 % 1024,4 hPa 0,0 l/m 0,2 km/h (0 Bft) S-SO 152 0 min 0,000 mm 0,0 UV-I 44 W/m -0,9 C -0,3 C 1,6 km/h (1 Bft)
12.02.2015 10:35 -0,3 C 96 % 1024,5 hPa 0,0 l/m 0,0 km/h (0 Bft) S-SO 152 0 min 0,000 mm 0,0 UV-I 44 W/m -0,9 C -0,3 C 0,0 km/h (0 Bft)
12.02.2015 10:40 -0,2 C 96 % 1024,5 hPa 0,0 l/m 0,7 km/h (0 Bft) S-SO 156 0 min 0,000 mm 0,0 UV-I 46 W/m -0,8 C -0,2 C 4,8 km/h (1 Bft)
12.02.2015 10:45 -0,2 C 96 % 1024,5 hPa 0,0 l/m 0,4 km/h (0 Bft) S-SW 210 0 min 0,000 mm 0,0 UV-I 43 W/m -0,8 C -0,2 C 6,4 km/h (2 Bft)
12.02.2015 10:50 -0,2 C 96 % 1024,5 hPa 0,0 l/m 1,7 km/h (1 Bft) O-SO 121 0 min 0,000 mm 0,0 UV-I 48 W/m -0,8 C -0,2 C 6,4 km/h (2 Bft)
12.02.2015 10:55 -0,2 C 96 % 1024,6 hPa 0,0 l/m 3,1 km/h (1 Bft) S-SW 207 0 min 0,000 mm 0,0 UV-I 51 W/m -0,8 C -0,2 C 8,0 km/h (2 Bft)
12.02.2015 11:00 -0,1 C 96 % 1024,6 hPa 0,0 l/m 2,1 km/h (1 Bft) O-SO 113 0 min 0,025 mm 0,0 UV-I 53 W/m -0,7 C -0,1 C 6,4 km/h (2 Bft)
12.02.2015 11:05 -0,2 C 96 % 1024,5 hPa 0,0 l/m 2,4 km/h (1 Bft) S 184 0 min 0,000 mm 0,0 UV-I 58 W/m -0,8 C -0,2 C 6,4 km/h (2 Bft)
12.02.2015 11:10 -0,1 C 96 % 1024,5 hPa 0,0 l/m 0,4 km/h (0 Bft) O-SO 115 0 min 0,000 mm 0,0 UV-I 57 W/m -0,7 C -0,1 C 3,2 km/h (1 Bft)
12.02.2015 11:15 -0,2 C 96 % 1024,5 hPa 0,0 l/m 0,5 km/h (0 Bft) O 99 0 min 0,000 mm 0,0 UV-I 51 W/m -0,8 C -0,2 C 3,2 km/h (1 Bft)
12.02.2015 11:20 -0,2 C 96 % 1024,5 hPa 0,0 l/m 4,2 km/h (1 Bft) O-SO 119 0 min 0,000 mm 0,0 UV-I 54 W/m -0,8 C -0,2 C 11,3 km/h (2 Bft)
12.02.2015 11:25 -0,2 C 96 % 1024,5 hPa 0,0 l/m 1,8 km/h (1 Bft) O 101 0 min 0,000 mm 0,0 UV-I 58 W/m -0,8 C -0,2 C 4,8 km/h (1 Bft)
12.02.2015 11:30 -0,2 C 96 % 1024,6 hPa 0,0 l/m 2,3 km/h (1 Bft) O-SO 111 0 min 0,000 mm 0,1 UV-I 59 W/m -0,8 C -0,2 C 4,8 km/h (1 Bft)
12.02.2015 11:35 -0,2 C 96 % 1024,4 hPa 0,0 l/m 2,9 km/h (1 Bft) O 94 0 min 0,000 mm 0,5 UV-I 59 W/m -0,8 C -0,2 C 6,4 km/h (2 Bft)
12.02.2015 11:40 -0,2 C 96 % 1024,4 hPa 0,0 l/m 1,1 km/h (1 Bft) O 88 0 min 0,000 mm 0,5 UV-I 62 W/m -0,8 C -0,2 C 3,2 km/h (1 Bft)
12.02.2015 11:45 -0,2 C 96 % 1024,3 hPa 0,0 l/m 3,5 km/h (1 Bft) O-SO 111 0 min 0,000 mm 0,5 UV-I 63 W/m -0,8 C -0,2 C 9,7 km/h (2 Bft)
12.02.2015 11:50 -0,1 C 96 % 1024,4 hPa 0,0 l/m 3,0 km/h (1 Bft) SO 145 0 min 0,000 mm 0,5 UV-I 61 W/m -0,7 C -0,1 C 9,7 km/h (2 Bft)
12.02.2015 11:55 -0,1 C 96 % 1024,3 hPa 0,0 l/m 3,2 km/h (1 Bft) O-SO 104 0 min 0,000 mm 0,5 UV-I 62 W/m -0,7 C -0,1 C 8,0 km/h (2 Bft)
12.02.2015 12:00 -0,1 C 96 % 1024,3 hPa 0,0 l/m 3,4 km/h (1 Bft) O-SO 110 0 min 0,026 mm 0,5 UV-I 66 W/m -0,7 C -0,1 C 9,7 km/h (2 Bft)
12.02.2015 12:05 -0,1 C 96 % 1024,3 hPa 0,0 l/m 2,2 km/h (1 Bft) O 98 0 min 0,000 mm 0,5 UV-I 68 W/m -0,7 C -0,1 C 8,0 km/h (2 Bft)
12.02.2015 12:10 -0,1 C 96 % 1024,2 hPa 0,0 l/m 3,1 km/h (1 Bft) O-SO 112 0 min 0,000 mm 0,5 UV-I 76 W/m -0,7 C -0,1 C 6,4 km/h (2 Bft)
12.02.2015 12:15 -0,1 C 96 % 1024,2 hPa 0,0 l/m 3,1 km/h (1 Bft) SO 131 0 min 0,000 mm 0,5 UV-I 74 W/m -0,7 C -0,1 C 8,0 km/h (2 Bft)
12.02.2015 12:20 0,1 C 96 % 1024,2 hPa 0,0 l/m 1,4 km/h (1 Bft) S-SO 159 0 min 0,000 mm 0,5 UV-I 70 W/m -0,5 C 0,1 C 6,4 km/h (2 Bft)
12.02.2015 12:25 0,1 C 95 % 1024,1 hPa 0,0 l/m 2,3 km/h (1 Bft) O 98 0 min 0,000 mm 0,5 UV-I 69 W/m -0,6 C 0,1 C 8,0 km/h (2 Bft)
12.02.2015 12:30 0,1 C 95 % 1024,1 hPa 0,0 l/m 3,6 km/h (1 Bft) S-SW 209 0 min 0,000 mm 0,5 UV-I 79 W/m -0,6 C 0,1 C 9,7 km/h (2 Bft)
12.02.2015 12:35 0,2 C 95 % 1024,1 hPa 0,0 l/m 1,3 km/h (1 Bft) S-SO 157 0 min 0,000 mm 0,5 UV-I 76 W/m -0,5 C 0,2 C 4,8 km/h (1 Bft)
12.02.2015 12:40 0,2 C 95 % 1024,0 hPa 0,0 l/m 3,4 km/h (1 Bft) S-SO 159 0 min 0,000 mm 0,5 UV-I 74 W/m -0,5 C 0,2 C 8,0 km/h (2 Bft)
12.02.2015 12:45 0,2 C 95 % 1023,9 hPa 0,0 l/m 2,4 km/h (1 Bft) SO 134 0 min 0,000 mm 0,6 UV-I 81 W/m -0,5 C 0,2 C 6,4 km/h (2 Bft)
12.02.2015 12:50 0,2 C 95 % 1023,9 hPa 0,0 l/m 0,6 km/h (0 Bft) S-SW 194 0 min 0,000 mm 0,6 UV-I 81 W/m -0,5 C 0,2 C 4,8 km/h (1 Bft)
12.02.2015 12:55 0,3 C 95 % 1023,8 hPa 0,0 l/m 2,0 km/h (1 Bft) S 184 0 min 0,000 mm 0,6 UV-I 81 W/m -0,4 C 0,3 C 6,4 km/h (2 Bft)
12.02.2015 13:00 0,3 C 95 % 1023,8 hPa 0,0 l/m 2,9 km/h (1 Bft) O-NO 60 0 min 0,025 mm 0,5 UV-I 80 W/m -0,4 C 0,3 C 6,4 km/h (2 Bft)
12.02.2015 13:05 0,3 C 95 % 1023,8 hPa 0,0 l/m 0,5 km/h (0 Bft) S-SO 151 0 min 0,000 mm 0,5 UV-I 79 W/m -0,4 C 0,3 C 3,2 km/h (1 Bft)
12.02.2015 13:10 0,3 C 95 % 1023,8 hPa 0,0 l/m 0,0 km/h (0 Bft) S-SO 151 0 min 0,000 mm 0,5 UV-I 75 W/m -0,4 C 0,3 C 0,0 km/h (0 Bft)
12.02.2015 13:15 0,4 C 95 % 1023,7 hPa 0,0 l/m 0,9 km/h (0 Bft) O-SO 111 0 min 0,000 mm 0,5 UV-I 75 W/m -0,3 C 0,4 C 4,8 km/h (1 Bft)
12.02.2015 13:20 0,5 C 94 % 1023,7 hPa 0,0 l/m 2,4 km/h (1 Bft) O-SO 104 0 min 0,000 mm 0,5 UV-I 80 W/m -0,4 C 0,5 C 8,0 km/h (2 Bft)
12.02.2015 13:25 0,5 C 94 % 1023,7 hPa 0,0 l/m 2,5 km/h (1 Bft) SO 129 0 min 0,000 mm 0,5 UV-I 83 W/m -0,4 C 0,5 C 8,0 km/h (2 Bft)
12.02.2015 13:30 0,5 C 94 % 1023,7 hPa 0,0 l/m 2,2 km/h (1 Bft) SO 146 0 min 0,000 mm 0,6 UV-I 90 W/m -0,4 C 0,5 C 8,0 km/h (2 Bft)
12.02.2015 13:35 0,4 C 93 % 1023,6 hPa 0,0 l/m 1,6 km/h (1 Bft) S 173 0 min 0,000 mm 0,6 UV-I 90 W/m -0,6 C 0,4 C 4,8 km/h (1 Bft)
12.02.2015 13:40 0,4 C 93 % 1023,6 hPa 0,0 l/m 3,5 km/h (1 Bft) S-SO 147 0 min 0,000 mm 0,6 UV-I 87 W/m -0,6 C 0,4 C 8,0 km/h (2 Bft)
12.02.2015 13:45 0,4 C 93 % 1023,6 hPa 0,0 l/m 0,6 km/h (0 Bft) O-SO 117 0 min 0,000 mm 0,5 UV-I 82 W/m -0,6 C 0,4 C 4,8 km/h (1 Bft)
12.02.2015 13:50 0,5 C 93 % 1023,5 hPa 0,0 l/m 0,3 km/h (0 Bft) O-SO 105 0 min 0,000 mm 0,5 UV-I 80 W/m -0,5 C 0,5 C 3,2 km/h (1 Bft)
12.02.2015 13:55 0,6 C 94 % 1023,5 hPa 0,0 l/m 0,0 km/h (0 Bft) S-SO 149 0 min 0,000 mm 0,5 UV-I 77 W/m -0,3 C 0,6 C 1,6 km/h (1 Bft)
12.02.2015 14:00 0,6 C 93 % 1023,4 hPa 0,0 l/m 0,7 km/h (0 Bft) O-SO 114 0 min 0,026 mm 0,5 UV-I 74 W/m -0,4 C 0,6 C 3,2 km/h (1 Bft)
12.02.2015 14:05 0,7 C 93 % 1023,4 hPa 0,0 l/m 2,1 km/h (1 Bft) S-SW 205 0 min 0,000 mm 0,5 UV-I 75 W/m -0,3 C 0,7 C 8,0 km/h (2 Bft)
12.02.2015 14:10 0,7 C 93 % 1023,4 hPa 0,0 l/m 1,6 km/h (1 Bft) S-SO 158 0 min 0,000 mm 0,5 UV-I 87 W/m -0,3 C 0,7 C 6,4 km/h (2 Bft)
12.02.2015 14:15 0,7 C 92 % 1023,3 hPa 0,0 l/m 0,3 km/h (0 Bft) S-SO 159 0 min 0,000 mm 0,5 UV-I 83 W/m -0,4 C 0,7 C 3,2 km/h (1 Bft)
12.02.2015 14:20 0,8 C 93 % 1023,3 hPa 0,0 l/m 0,1 km/h (0 Bft) S 190 0 min 0,000 mm 0,5 UV-I 83 W/m -0,2 C 0,8 C 1,6 km/h (1 Bft)
12.02.2015 14:25 0,9 C 93 % 1023,3 hPa 0,0 l/m 1,9 km/h (1 Bft) W 265 0 min 0,000 mm 0,5 UV-I 83 W/m -0,1 C 0,9 C 6,4 km/h (2 Bft)
12.02.2015 14:30 1,1 C 92 % 1023,3 hPa 0,0 l/m 1,2 km/h (1 Bft) S 186 0 min 0,000 mm 0,5 UV-I 83 W/m -0,1 C 1,1 C 6,4 km/h (2 Bft)
12.02.2015 14:35 1,2 C 92 % 1023,3 hPa 0,0 l/m 2,5 km/h (1 Bft) S 184 0 min 0,000 mm 0,5 UV-I 86 W/m 0,0 C 1,2 C 8,0 km/h (2 Bft)
12.02.2015 14:40 1,1 C 91 % 1023,2 hPa 0,0 l/m 0,4 km/h (0 Bft) S-SO 159 0 min 0,000 mm 0,5 UV-I 75 W/m -0,2 C 1,1 C 3,2 km/h (1 Bft)
12.02.2015 14:45 1,2 C 91 % 1023,2 hPa 0,0 l/m 1,7 km/h (1 Bft) SW 230 0 min 0,000 mm 0,5 UV-I 76 W/m -0,1 C 1,2 C 6,4 km/h (2 Bft)
12.02.2015 14:50 1,2 C 91 % 1023,1 hPa 0,0 l/m 2,6 km/h (1 Bft) S 184 0 min 0,000 mm 0,4 UV-I 78 W/m -0,1 C 1,2 C 8,0 km/h (2 Bft)
12.02.2015 14:55 1,2 C 91 % 1023,0 hPa 0,0 l/m 1,4 km/h (1 Bft) SW 221 0 min 0,000 mm 0,5 UV-I 84 W/m -0,1 C 1,2 C 4,8 km/h (1 Bft)
12.02.2015 15:00 1,2 C 91 % 1023,0 hPa 0,0 l/m 1,8 km/h (1 Bft) SW 223 0 min 0,025 mm 0,5 UV-I 83 W/m -0,1 C 1,2 C 4,8 km/h (1 Bft)
12.02.2015 15:05 1,2 C 91 % 1022,9 hPa 0,0 l/m 2,5 km/h (1 Bft) W-NW 303 0 min 0,000 mm 0,2 UV-I 83 W/m -0,1 C 1,2 C 8,0 km/h (2 Bft)
12.02.2015 15:10 1,1 C 91 % 1023,0 hPa 0,0 l/m 2,0 km/h (1 Bft) W 277 0 min 0,000 mm 0,0 UV-I 84 W/m -0,2 C 1,1 C 6,4 km/h (2 Bft)
12.02.2015 15:15 1,1 C 91 % 1022,9 hPa 0,0 l/m 3,1 km/h (1 Bft) W 264 0 min 0,000 mm 0,0 UV-I 81 W/m -0,2 C 1,1 C 6,4 km/h (2 Bft)
12.02.2015 15:20 1,1 C 91 % 1022,9 hPa 0,0 l/m 2,0 km/h (1 Bft) W-NW 298 0 min 0,000 mm 0,0 UV-I 69 W/m -0,2 C 1,1 C 4,8 km/h (1 Bft)
12.02.2015 15:25 1,2 C 91 % 1022,9 hPa 0,0 l/m 0,0 km/h (0 Bft) W-NW 298 0 min 0,000 mm 0,0 UV-I 67 W/m -0,1 C 1,2 C 0,0 km/h (0 Bft)
12.02.2015 15:30 1,3 C 91 % 1023,0 hPa 0,0 l/m 0,4 km/h (0 Bft) S-SW 197 0 min 0,000 mm 0,0 UV-I 68 W/m -0,0 C 1,3 C 3,2 km/h (1 Bft)
12.02.2015 15:35 1,3 C 91 % 1023,1 hPa 0,0 l/m 0,1 km/h (0 Bft) S-SW 197 0 min 0,000 mm 0,0 UV-I 58 W/m -0,0 C 1,3 C 3,2 km/h (1 Bft)
12.02.2015 15:40 1,3 C 91 % 1023,0 hPa 0,0 l/m 0,1 km/h (0 Bft) S-SO 153 0 min 0,000 mm 0,0 UV-I 50 W/m -0,0 C 1,3 C 1,6 km/h (1 Bft)
12.02.2015 15:45 1,3 C 91 % 1023,0 hPa 0,0 l/m 1,2 km/h (1 Bft) O-SO 109 0 min 0,000 mm 0,0 UV-I 46 W/m -0,0 C 1,3 C 4,8 km/h (1 Bft)
12.02.2015 15:50 1,2 C 91 % 1023,0 hPa 0,0 l/m 1,2 km/h (1 Bft) O-SO 107 0 min 0,000 mm 0,0 UV-I 45 W/m -0,1 C 1,2 C 8,0 km/h (2 Bft)
12.02.2015 15:55 1,1 C 91 % 1023,1 hPa 0,0 l/m 1,9 km/h (1 Bft) O-SO 102 0 min 0,000 mm 0,0 UV-I 42 W/m -0,2 C 1,1 C 4,8 km/h (1 Bft)
12.02.2015 16:00 1,1 C 91 % 1023,0 hPa 0,0 l/m 1,0 km/h (0 Bft) O-SO 102 0 min 0,025 mm 0,0 UV-I 39 W/m -0,2 C 1,1 C 3,2 km/h (1 Bft)
12.02.2015 16:05 1,1 C 91 % 1023,0 hPa 0,0 l/m 1,7 km/h (1 Bft) O-SO 103 0 min 0,000 mm 0,0 UV-I 36 W/m -0,2 C 1,1 C 4,8 km/h (1 Bft)
12.02.2015 16:10 1,1 C 91 % 1023,0 hPa 0,0 l/m 2,3 km/h (1 Bft) O 98 0 min 0,000 mm 0,0 UV-I 33 W/m -0,2 C 1,1 C 8,0 km/h (2 Bft)
12.02.2015 16:15 1,1 C 91 % 1023,0 hPa 0,0 l/m 2,1 km/h (1 Bft) S-SO 155 0 min 0,000 mm 0,0 UV-I 32 W/m -0,2 C 1,1 C 8,0 km/h (2 Bft)
12.02.2015 16:20 1,0 C 91 % 1022,9 hPa 0,0 l/m 1,9 km/h (1 Bft) S-SO 163 0 min 0,000 mm 0,0 UV-I 32 W/m -0,3 C 1,0 C 6,4 km/h (2 Bft)
12.02.2015 16:25 1,0 C 91 % 1022,9 hPa 0,0 l/m 2,0 km/h (1 Bft) S-SO 154 0 min 0,000 mm 0,0 UV-I 29 W/m -0,3 C 1,0 C 4,8 km/h (1 Bft)
12.02.2015 16:30 1,1 C 91 % 1022,9 hPa 0,0 l/m 0,5 km/h (0 Bft) S-SW 199 0 min 0,000 mm 0,0 UV-I 28 W/m -0,2 C 1,1 C 3,2 km/h (1 Bft)
12.02.2015 16:35 1,1 C 91 % 1022,9 hPa 0,0 l/m 1,2 km/h (1 Bft) S 188 0 min 0,000 mm 0,0 UV-I 25 W/m -0,2 C 1,1 C 4,8 km/h (1 Bft)
12.02.2015 16:40 1,2 C 90 % 1022,9 hPa 0,0 l/m 1,2 km/h (1 Bft) S-SO 167 0 min 0,000 mm 0,0 UV-I 23 W/m -0,3 C 1,2 C 6,4 km/h (2 Bft)
12.02.2015 16:45 1,1 C 90 % 1022,9 hPa 0,0 l/m 0,5 km/h (0 Bft) S 178 0 min 0,000 mm 0,0 UV-I 22 W/m -0,4 C 1,1 C 3,2 km/h (1 Bft)
12.02.2015 16:50 1,2 C 90 % 1022,9 hPa 0,0 l/m 0,4 km/h (0 Bft) S-SO 168 0 min 0,000 mm 0,0 UV-I 19 W/m -0,3 C 1,2 C 4,8 km/h (1 Bft)
12.02.2015 16:55 1,2 C 90 % 1023,0 hPa 0,0 l/m 0,9 km/h (0 Bft) SO 143 0 min 0,000 mm 0,0 UV-I 16 W/m -0,3 C 1,2 C 4,8 km/h (1 Bft)
12.02.2015 17:00 1,2 C 90 % 1023,1 hPa 0,0 l/m 0,1 km/h (0 Bft) S-SW 203 0 min 0,000 mm 0,0 UV-I 13 W/m -0,3 C 1,2 C 1,6 km/h (1 Bft)
12.02.2015 17:05 1,2 C 90 % 1023,0 hPa 0,0 l/m 0,1 km/h (0 Bft) O-SO 115 0 min 0,000 mm 0,0 UV-I 10 W/m -0,3 C 1,2 C 1,6 km/h (1 Bft)
12.02.2015 17:10 1,2 C 90 % 1023,1 hPa 0,0 l/m 0,3 km/h (0 Bft) NO 46 0 min 0,000 mm 0,0 UV-I 8 W/m -0,3 C 1,2 C 3,2 km/h (1 Bft)
12.02.2015 17:15 1,0 C 90 % 1023,1 hPa 0,0 l/m 0,8 km/h (0 Bft) O-SO 110 0 min 0,000 mm 0,0 UV-I 6 W/m -0,5 C 1,0 C 3,2 km/h (1 Bft)
12.02.2015 17:20 0,9 C 90 % 1023,0 hPa 0,0 l/m 0,9 km/h (0 Bft) O 97 0 min 0,000 mm 0,0 UV-I 5 W/m -0,6 C 0,9 C 4,8 km/h (1 Bft)
12.02.2015 17:25 0,9 C 90 % 1023,1 hPa 0,0 l/m 0,9 km/h (0 Bft) O-NO 66 0 min 0,000 mm 0,0 UV-I 0 W/m -0,6 C 0,9 C 4,8 km/h (1 Bft)
12.02.2015 17:30 0,9 C 90 % 1023,1 hPa 0,0 l/m 2,5 km/h (1 Bft) O 87 0 min 0,000 mm 0,0 UV-I 0 W/m -0,6 C 0,9 C 8,0 km/h (2 Bft)
12.02.2015 17:35 0,8 C 91 % 1023,1 hPa 0,0 l/m 3,4 km/h (1 Bft) O-SO 105 0 min 0,000 mm 0,0 UV-I 0 W/m -0,5 C 0,8 C 9,7 km/h (2 Bft)
12.02.2015 17:40 0,8 C 91 % 1023,1 hPa 0,0 l/m 1,9 km/h (1 Bft) SO 134 0 min 0,000 mm 0,0 UV-I 0 W/m -0,5 C 0,8 C 8,0 km/h (2 Bft)
12.02.2015 17:45 0,8 C 91 % 1023,2 hPa 0,0 l/m 1,9 km/h (1 Bft) O-NO 73 0 min 0,000 mm 0,0 UV-I 0 W/m -0,5 C 0,8 C 6,4 km/h (2 Bft)
12.02.2015 17:50 0,8 C 91 % 1023,2 hPa 0,0 l/m 1,1 km/h (1 Bft) S 175 0 min 0,000 mm 0,0 UV-I 0 W/m -0,5 C 0,8 C 8,0 km/h (2 Bft)
12.02.2015 17:55 0,8 C 91 % 1023,2 hPa 0,0 l/m 0,5 km/h (0 Bft) O 84 0 min 0,000 mm 0,0 UV-I 0 W/m -0,5 C 0,8 C 4,8 km/h (1 Bft)
12.02.2015 18:00 0,8 C 91 % 1023,2 hPa 0,0 l/m 1,0 km/h (0 Bft) O-SO 111 0 min 0,000 mm 0,0 UV-I 0 W/m -0,5 C 0,8 C 3,2 km/h (1 Bft)
12.02.2015 18:05 0,7 C 91 % 1023,3 hPa 0,0 l/m 2,9 km/h (1 Bft) S-SO 159 0 min 0,000 mm 0,0 UV-I 0 W/m -0,6 C 0,7 C 11,3 km/h (2 Bft)
12.02.2015 18:10 0,7 C 91 % 1023,4 hPa 0,0 l/m 0,6 km/h (0 Bft) S 171 0 min 0,000 mm 0,0 UV-I 0 W/m -0,6 C 0,7 C 4,8 km/h (1 Bft)
12.02.2015 18:15 0,7 C 91 % 1023,4 hPa 0,0 l/m 1,6 km/h (1 Bft) SW 235 0 min 0,000 mm 0,0 UV-I 0 W/m -0,6 C 0,7 C 6,4 km/h (2 Bft)
12.02.2015 18:20 0,7 C 91 % 1023,4 hPa 0,0 l/m 2,3 km/h (1 Bft) SO 139 0 min 0,000 mm 0,0 UV-I 0 W/m -0,6 C 0,7 C 6,4 km/h (2 Bft)
12.02.2015 18:25 0,7 C 91 % 1023,4 hPa 0,0 l/m 2,8 km/h (1 Bft) O 94 0 min 0,000 mm 0,0 UV-I 0 W/m -0,6 C 0,7 C 8,0 km/h (2 Bft)
12.02.2015 18:30 0,6 C 91 % 1023,4 hPa 0,0 l/m 3,3 km/h (1 Bft) O-SO 106 0 min 0,000 mm 0,0 UV-I 0 W/m -0,7 C 0,6 C 6,4 km/h (2 Bft)
12.02.2015 18:35 0,5 C 91 % 1023,3 hPa 0,0 l/m 1,4 km/h (1 Bft) O-NO 65 0 min 0,000 mm 0,0 UV-I 0 W/m -0,8 C 0,5 C 4,8 km/h (1 Bft)
12.02.2015 18:40 0,4 C 91 % 1023,3 hPa 0,0 l/m 3,2 km/h (1 Bft) O-SO 111 0 min 0,000 mm 0,0 UV-I 0 W/m -0,9 C 0,4 C 9,7 km/h (2 Bft)
12.02.2015 18:45 0,4 C 91 % 1023,2 hPa 0,0 l/m 2,6 km/h (1 Bft) O 100 0 min 0,000 mm 0,0 UV-I 0 W/m -0,9 C 0,4 C 4,8 km/h (1 Bft)
12.02.2015 18:50 0,3 C 91 % 1023,2 hPa 0,0 l/m 4,1 km/h (1 Bft) O-SO 113 0 min 0,000 mm 0,0 UV-I 0 W/m -1,0 C 0,3 C 11,3 km/h (2 Bft)
12.02.2015 18:55 0,3 C 92 % 1023,2 hPa 0,0 l/m 1,7 km/h (1 Bft) O-NO 57 0 min 0,000 mm 0,0 UV-I 0 W/m -0,8 C 0,3 C 6,4 km/h (2 Bft)
12.02.2015 19:00 0,3 C 92 % 1023,3 hPa 0,0 l/m 2,4 km/h (1 Bft) O 94 0 min 0,000 mm 0,0 UV-I 0 W/m -0,8 C 0,3 C 8,0 km/h (2 Bft)
12.02.2015 19:05 0,3 C 92 % 1023,4 hPa 0,0 l/m 3,4 km/h (1 Bft) O-NO 64 0 min 0,000 mm 0,0 UV-I 0 W/m -0,8 C 0,3 C 9,7 km/h (2 Bft)
12.02.2015 19:10 0,2 C 92 % 1023,4 hPa 0,0 l/m 3,2 km/h (1 Bft) O-NO 59 0 min 0,000 mm 0,0 UV-I 0 W/m -0,9 C 0,2 C 6,4 km/h (2 Bft)
12.02.2015 19:15 0,2 C 92 % 1023,4 hPa 0,0 l/m 2,4 km/h (1 Bft) O 90 0 min 0,000 mm 0,0 UV-I 0 W/m -0,9 C 0,2 C 6,4 km/h (2 Bft)
12.02.2015 19:20 0,2 C 91 % 1023,5 hPa 0,0 l/m 1,8 km/h (1 Bft) NO 55 0 min 0,000 mm 0,0 UV-I 0 W/m -1,1 C 0,2 C 6,4 km/h (2 Bft)
12.02.2015 19:25 0,2 C 92 % 1023,5 hPa 0,0 l/m 3,2 km/h (1 Bft) O-NO 57 0 min 0,000 mm 0,0 UV-I 0 W/m -0,9 C 0,2 C 8,0 km/h (2 Bft)
12.02.2015 19:30 0,2 C 91 % 1023,6 hPa 0,0 l/m 2,4 km/h (1 Bft) O-NO 74 0 min 0,000 mm 0,0 UV-I 0 W/m -1,1 C 0,2 C 8,0 km/h (2 Bft)
12.02.2015 19:35 0,2 C 92 % 1023,6 hPa 0,0 l/m 2,9 km/h (1 Bft) O 96 0 min 0,000 mm 0,0 UV-I 0 W/m -0,9 C 0,2 C 9,7 km/h (2 Bft)
12.02.2015 19:40 0,1 C 92 % 1023,6 hPa 0,0 l/m 3,1 km/h (1 Bft) O-NO 61 0 min 0,000 mm 0,0 UV-I 0 W/m -1,0 C 0,1 C 8,0 km/h (2 Bft)
12.02.2015 19:45 0,2 C 92 % 1023,5 hPa 0,0 l/m 1,6 km/h (1 Bft) O 99 0 min 0,000 mm 0,0 UV-I 0 W/m -0,9 C 0,2 C 4,8 km/h (1 Bft)
12.02.2015 19:50 0,2 C 92 % 1023,6 hPa 0,0 l/m 0,5 km/h (0 Bft) O 84 0 min 0,000 mm 0,0 UV-I 0 W/m -0,9 C 0,2 C 4,8 km/h (1 Bft)
12.02.2015 19:55 0,1 C 92 % 1023,6 hPa 0,0 l/m 1,8 km/h (1 Bft) O 89 0 min 0,000 mm 0,0 UV-I 0 W/m -1,0 C 0,1 C 9,7 km/h (2 Bft)
12.02.2015 20:00 0,2 C 92 % 1023,6 hPa 0,0 l/m 0,5 km/h (0 Bft) O-SO 118 0 min 0,000 mm 0,0 UV-I 0 W/m -0,9 C 0,2 C 4,8 km/h (1 Bft)
12.02.2015 20:05 0,2 C 92 % 1023,6 hPa 0,0 l/m 0,4 km/h (0 Bft) O 97 0 min 0,000 mm 0,0 UV-I 0 W/m -0,9 C 0,2 C 4,8 km/h (1 Bft)
12.02.2015 20:10 0,2 C 92 % 1023,6 hPa 0,0 l/m 0,7 km/h (0 Bft) S-SW 207 0 min 0,000 mm 0,0 UV-I 0 W/m -0,9 C 0,2 C 3,2 km/h (1 Bft)
12.02.2015 20:15 0,2 C 92 % 1023,6 hPa 0,0 l/m 0,8 km/h (0 Bft) O 93 0 min 0,000 mm 0,0 UV-I 0 W/m -0,9 C 0,2 C 3,2 km/h (1 Bft)
12.02.2015 20:20 0,2 C 92 % 1023,6 hPa 0,0 l/m 0,8 km/h (0 Bft) S 175 0 min 0,000 mm 0,0 UV-I 0 W/m -0,9 C 0,2 C 3,2 km/h (1 Bft)
12.02.2015 20:25 0,2 C 92 % 1023,6 hPa 0,0 l/m 2,2 km/h (1 Bft) O-SO 114 0 min 0,000 mm 0,0 UV-I 0 W/m -0,9 C 0,2 C 9,7 km/h (2 Bft)
12.02.2015 20:30 0,1 C 92 % 1023,6 hPa 0,0 l/m 2,1 km/h (1 Bft) S-SO 157 0 min 0,000 mm 0,0 UV-I 0 W/m -1,0 C 0,1 C 8,0 km/h (2 Bft)
12.02.2015 20:35 0,1 C 92 % 1023,5 hPa 0,0 l/m 2,1 km/h (1 Bft) O 97 0 min 0,000 mm 0,0 UV-I 0 W/m -1,0 C 0,1 C 9,7 km/h (2 Bft)
12.02.2015 20:40 0,1 C 92 % 1023,5 hPa 0,0 l/m 2,6 km/h (1 Bft) SO 129 0 min 0,000 mm 0,0 UV-I 0 W/m -1,0 C 0,1 C 9,7 km/h (2 Bft)
12.02.2015 20:45 0,1 C 92 % 1023,4 hPa 0,0 l/m 1,8 km/h (1 Bft) S-SO 150 0 min 0,000 mm 0,0 UV-I 0 W/m -1,0 C 0,1 C 6,4 km/h (2 Bft)
12.02.2015 20:50 0,1 C 92 % 1023,4 hPa 0,0 l/m 0,6 km/h (0 Bft) O-NO 62 0 min 0,000 mm 0,0 UV-I 0 W/m -1,0 C 0,1 C 3,2 km/h (1 Bft)
12.02.2015 20:55 0,1 C 92 % 1023,4 hPa 0,0 l/m 2,4 km/h (1 Bft) SO 133 0 min 0,000 mm 0,0 UV-I 0 W/m -1,0 C 0,1 C 8,0 km/h (2 Bft)
12.02.2015 21:00 0,1 C 92 % 1023,5 hPa 0,0 l/m 1,8 km/h (1 Bft) O-NO 58 0 min 0,000 mm 0,0 UV-I 0 W/m -1,0 C 0,1 C 8,0 km/h (2 Bft)
12.02.2015 21:05 0,1 C 92 % 1023,5 hPa 0,0 l/m 2,2 km/h (1 Bft) O-SO 117 0 min 0,000 mm 0,0 UV-I 0 W/m -1,0 C 0,1 C 8,0 km/h (2 Bft)
12.02.2015 21:10 0,1 C 93 % 1023,5 hPa 0,0 l/m 0,4 km/h (0 Bft) SO 136 0 min 0,000 mm 0,0 UV-I 0 W/m -0,9 C 0,1 C 3,2 km/h (1 Bft)
12.02.2015 21:15 0,1 C 93 % 1023,5 hPa 0,0 l/m 2,4 km/h (1 Bft) SO 134 0 min 0,000 mm 0,0 UV-I 0 W/m -0,9 C 0,1 C 8,0 km/h (2 Bft)
12.02.2015 21:20 0,1 C 93 % 1023,5 hPa 0,0 l/m 0,7 km/h (0 Bft) O-SO 112 0 min 0,000 mm 0,0 UV-I 0 W/m -0,9 C 0,1 C 6,4 km/h (2 Bft)
12.02.2015 21:25 0,1 C 93 % 1023,5 hPa 0,0 l/m 2,5 km/h (1 Bft) NO 53 0 min 0,000 mm 0,0 UV-I 0 W/m -0,9 C 0,1 C 8,0 km/h (2 Bft)
12.02.2015 21:30 0,1 C 93 % 1023,4 hPa 0,0 l/m 0,6 km/h (0 Bft) O-SO 103 0 min 0,000 mm 0,0 UV-I 0 W/m -0,9 C 0,1 C 4,8 km/h (1 Bft)
12.02.2015 21:35 0,1 C 93 % 1023,4 hPa 0,0 l/m 3,3 km/h (1 Bft) SO 144 0 min 0,000 mm 0,0 UV-I 0 W/m -0,9 C 0,1 C 11,3 km/h (2 Bft)
12.02.2015 21:40 0,0 C 93 % 1023,4 hPa 0,0 l/m 2,1 km/h (1 Bft) SO 135 0 min 0,000 mm 0,0 UV-I 0 W/m -1,0 C 0,0 C 8,0 km/h (2 Bft)
12.02.2015 21:45 0,0 C 93 % 1023,4 hPa 0,0 l/m 0,7 km/h (0 Bft) NO 55 0 min 0,000 mm 0,0 UV-I 0 W/m -1,0 C 0,0 C 6,4 km/h (2 Bft)
12.02.2015 21:50 0,1 C 93 % 1023,3 hPa 0,0 l/m 2,7 km/h (1 Bft) O-SO 105 0 min 0,000 mm 0,0 UV-I 0 W/m -0,9 C 0,1 C 8,0 km/h (2 Bft)
12.02.2015 21:55 0,1 C 93 % 1023,3 hPa 0,0 l/m 0,6 km/h (0 Bft) O-SO 103 0 min 0,000 mm 0,0 UV-I 0 W/m -0,9 C 0,1 C 4,8 km/h (1 Bft)
12.02.2015 22:00 0,1 C 93 % 1023,3 hPa 0,0 l/m 1,7 km/h (1 Bft) SO 126 0 min 0,000 mm 0,0 UV-I 0 W/m -0,9 C 0,1 C 8,0 km/h (2 Bft)
12.02.2015 22:05 0,1 C 93 % 1023,2 hPa 0,0 l/m 1,3 km/h (1 Bft) S-SW 205 0 min 0,000 mm 0,0 UV-I 0 W/m -0,9 C 0,1 C 8,0 km/h (2 Bft)
12.02.2015 22:10 0,1 C 93 % 1023,2 hPa 0,0 l/m 1,1 km/h (1 Bft) S-SO 167 0 min 0,000 mm 0,0 UV-I 0 W/m -0,9 C 0,1 C 4,8 km/h (1 Bft)
12.02.2015 22:15 0,1 C 93 % 1023,2 hPa 0,0 l/m 0,9 km/h (0 Bft) O 96 0 min 0,000 mm 0,0 UV-I 0 W/m -0,9 C 0,1 C 8,0 km/h (2 Bft)
12.02.2015 22:20 0,1 C 93 % 1023,2 hPa 0,0 l/m 1,3 km/h (1 Bft) O 94 0 min 0,000 mm 0,0 UV-I 0 W/m -0,9 C 0,1 C 3,2 km/h (1 Bft)
12.02.2015 22:25 0,1 C 93 % 1023,2 hPa 0,0 l/m 1,0 km/h (0 Bft) O 90 0 min 0,000 mm 0,0 UV-I 0 W/m -0,9 C 0,1 C 4,8 km/h (1 Bft)
12.02.2015 22:30 0,1 C 93 % 1023,2 hPa 0,0 l/m 0,8 km/h (0 Bft) SO 137 0 min 0,000 mm 0,0 UV-I 0 W/m -0,9 C 0,1 C 4,8 km/h (1 Bft)
12.02.2015 22:35 0,0 C 93 % 1023,2 hPa 0,0 l/m 5,5 km/h (1 Bft) S-SO 148 0 min 0,000 mm 0,0 UV-I 0 W/m -1,0 C 0,0 C 11,3 km/h (2 Bft)
12.02.2015 22:40 -0,1 C 93 % 1023,1 hPa 0,0 l/m 2,8 km/h (1 Bft) SO 146 0 min 0,000 mm 0,0 UV-I 0 W/m -1,1 C -0,1 C 8,0 km/h (2 Bft)
12.02.2015 22:45 -0,1 C 93 % 1023,1 hPa 0,0 l/m 3,8 km/h (1 Bft) S-SO 148 0 min 0,000 mm 0,0 UV-I 0 W/m -1,1 C -0,1 C 8,0 km/h (2 Bft)
12.02.2015 22:50 -0,1 C 93 % 1023,2 hPa 0,0 l/m 2,0 km/h (1 Bft) SW 218 0 min 0,000 mm 0,0 UV-I 0 W/m -1,1 C -0,1 C 4,8 km/h (1 Bft)
12.02.2015 22:55 -0,1 C 94 % 1023,2 hPa 0,0 l/m 2,0 km/h (1 Bft) S-SW 198 0 min 0,000 mm 0,0 UV-I 0 W/m -0,9 C -0,1 C 6,4 km/h (2 Bft)
12.02.2015 23:00 -0,1 C 93 % 1023,2 hPa 0,0 l/m 0,6 km/h (0 Bft) O-SO 102 0 min 0,000 mm 0,0 UV-I 0 W/m -1,1 C -0,1 C 3,2 km/h (1 Bft)
12.02.2015 23:05 -0,1 C 93 % 1023,1 hPa 0,0 l/m 0,9 km/h (0 Bft) O-SO 107 0 min 0,000 mm 0,0 UV-I 0 W/m -1,1 C -0,1 C 4,8 km/h (1 Bft)
12.02.2015 23:10 -0,1 C 94 % 1023,1 hPa 0,0 l/m 0,4 km/h (0 Bft) SO 129 0 min 0,000 mm 0,0 UV-I 0 W/m -0,9 C -0,1 C 3,2 km/h (1 Bft)
12.02.2015 23:15 -0,1 C 94 % 1023,1 hPa 0,0 l/m 1,2 km/h (1 Bft) O-NO 76 0 min 0,000 mm 0,0 UV-I 0 W/m -0,9 C -0,1 C 8,0 km/h (2 Bft)
12.02.2015 23:20 -0,1 C 93 % 1023,0 hPa 0,0 l/m 1,3 km/h (1 Bft) O-SO 105 0 min 0,000 mm 0,0 UV-I 0 W/m -1,1 C -0,1 C 4,8 km/h (1 Bft)
12.02.2015 23:25 -0,1 C 93 % 1023,1 hPa 0,0 l/m 2,0 km/h (1 Bft) O 93 0 min 0,000 mm 0,0 UV-I 0 W/m -1,1 C -0,1 C 4,8 km/h (1 Bft)
12.02.2015 23:30 -0,1 C 93 % 1023,1 hPa 0,0 l/m 1,7 km/h (1 Bft) O 96 0 min 0,000 mm 0,0 UV-I 0 W/m -1,1 C -0,1 C 4,8 km/h (1 Bft)
12.02.2015 23:35 -0,1 C 93 % 1023,1 hPa 0,0 l/m 2,2 km/h (1 Bft) O 90 0 min 0,000 mm 0,0 UV-I 0 W/m -1,1 C -0,1 C 6,4 km/h (2 Bft)
12.02.2015 23:40 -0,2 C 93 % 1023,0 hPa 0,0 l/m 3,8 km/h (1 Bft) O-SO 120 0 min 0,000 mm 0,0 UV-I 0 W/m -1,2 C -0,2 C 9,7 km/h (2 Bft)
12.02.2015 23:45 -0,2 C 93 % 1023,0 hPa 0,0 l/m 2,2 km/h (1 Bft) S-SO 148 0 min 0,000 mm 0,0 UV-I 0 W/m -1,2 C -0,2 C 8,0 km/h (2 Bft)
12.02.2015 23:50 -0,2 C 93 % 1023,0 hPa 0,0 l/m 1,5 km/h (1 Bft) O 97 0 min 0,000 mm 0,0 UV-I 0 W/m -1,2 C -0,2 C 8,0 km/h (2 Bft)
12.02.2015 23:55 -0,2 C 94 % 1023,0 hPa 0,0 l/m 0,5 km/h (0 Bft) O-NO 66 0 min 0,000 mm 0,0 UV-I 0 W/m -1,0 C -0,2 C 3,2 km/h (1 Bft)
_ Min-Zeit 08:40 16:40 15:05 - 05:55 - - - - - - 00:15 08:45 05:55
Minimum _ -0,6 C 90 % 1022,9 hPa - 0,0 km/h (0 Bft) - - - - - - -1,2 C -0,6 C 0,0 km/h (0 Bft)
_ Max-Zeit 15:30 04:35 00:00 00:00 22:35 - - 00:00 12:00 12:45 13:30 14:35 15:30 00:15
Maximum _ 1,3 C 96 % 1024,7 hPa 0,0 l/m 5,5 km/h
S-SO (1 Bft)
- - 0 min 0,026 mm 0,6 UV-I 90 W/m 0,0 C 1,3 C 12,9 km/h
O (3 Bft)
Durchschnitt _ 0,1 C 94 % 1023,7 hPa #0,0 l/m 1,9 km/h (1 Bft) O - #0 min. #0,152 mm 0,5 UV-I 51 W/m -0,8 C 0,1 C 6,5 km/h (2 Bft)